Regional Weather Roundup
Issued by NWS Sterling, VA

Home | Current Version | Previous Version | Text Only | Print | Product List | Glossary On
Versions: 1 2 3 4 5 6 7 8 9 10 11 12 13 14 15 16 17 18 19 20 21 22 23 24 25 26 27 28 29 30 31 32 33 34 35 36 37 38 39 40 41 42 43 44 45 46 47 48 49 50
000
ASUS41 KLWX 010510
RWRLWX

REGIONAL WEATHER ROUNDUP
NATIONAL WEATHER SERVICE BALTIMORE MD/WASHINGTON DC
1200 AM EST SUN MAR 01 2015

Note: "FAIR" indicates few or no clouds below 12,000 feet
with no significant weather and/or obstructions to visibility.
 TC=TEMPERATURE CELSIUS

 * =Non NWS site. Station does not report precipitation (e.g. rain,
    snow, etc.), thunder, or fog.

DCZ001-MDZ009-015-VAZ040>042-051-053>054-010600-
WASHINGTON METRO

CITY           SKY/WX    TMP DP  RH WIND       PRES   REMARKS
WASHINGTON NAT PTCLDY    25  10  53 SE5       30.75F
DULLES         PTCLDY    21   8  57 S5        30.70F
ANDREWS AFB    CLEAR     21   7  56 SE2       30.71F
FT BELVOIR     CLEAR     19  12  74 CALM      30.73F
QUANTICO       FAIR      26  15  63 S9        30.75F WCI  17
COLLEGE PARK*  CLEAR     21  12  68 CALM      30.73F
LEESBURG*      PTCLDY    19  12  73 CALM      30.71F
MANASSAS*      PTCLDY    16  12  86 CALM      30.72F
GAITHERSBURG*  CLEAR     18   7  62 SE5       30.73F

$$

MDZ006>007-011-014-010600-
BALTIMORE METRO

CITY           SKY/WX    TMP DP  RH WIND       PRES   REMARKS
BWI AIRPORT    PTCLDY    17   7  64 CALM      30.73F
MD SCIENCE CTR   N/A      1 N/A N/A MISG      30.74F
MARTIN STATE   CLEAR     19  14  79 CALM      30.76F
ANNAPOLIS      CLEAR     20  13  74 CALM      30.74F
FORT MEADE*    CLEAR     14   9  79 CALM      30.76F

$$

MDZ012-015-019>023-010600-
MARYLAND EASTERN SHORE

CITY           SKY/WX    TMP DP  RH WIND       PRES   REMARKS
OCEAN CITY     PTCLDY    14  10  84 CALM      30.76F
SALISBURY      PTCLDY    17  11  77 CALM      30.75F
BAY BRIDGE AP*   N/A     21  14  73 CALM      30.75F
CAMBRIDGE*     CLEAR     19  12  73 CALM      30.75F
EASTON*        CLEAR     21  14  74 CALM      30.78F

$$

MDZ017>025-010600-
SOUTHERN MARYLAND

CITY           SKY/WX    TMP DP  RH WIND       PRES   REMARKS
PATUXENT RIVER CLEAR     16  10  77 CALM      30.74F
ST INIGOES     PTCLDY    17  10  74 CALM      30.74F
LEONARDTOWN*   CLEAR     19  12  73 CALM      30.75F

$$

MDZ003>005-010600-
NORTH CENTRAL MARYLAND

CITY           SKY/WX    TMP DP  RH WIND       PRES   REMARKS
FREDERICK*     CLEAR     19   5  53 CALM      30.74F
HAGERSTOWN APT CLEAR     21   4  47 E6        30.65F
WESTMINSTER*   PTCLDY    19   5  53 S3        30.67F

$$

MDZ501>502-010600-
WESTERN MARYLAND

CITY           SKY/WX    TMP DP  RH WIND       PRES   REMARKS
OAKLAND*       CLOUDY    18   3  53 SE13      30.43S WCI   4
CUMBERLAND*    MOCLDY    25  10  54 CALM      30.66F

$$

VAZ025>031-010600-
SHENANDOAH VALLEY

CITY           SKY/WX    TMP DP  RH WIND       PRES   REMARKS
WINCHESTER*    PTCLDY    19   3  49 CALM      30.64F
FRONT ROYAL*   FAIR      19   9  63 CALM      30.64F
LURAY*         FAIR      21  18  86 CALM      30.64F
NEW MARKET*    MOCLDY    13  10  85 CALM      30.64S
STAUNTON*      MOCLDY    20  12  71 CALM      30.64F
WAYNESBORO*    FAIR      23   9  55 SE5       30.61F

$$

WVZ021-048>050-054>055-010600-
EASTERN WEST VIRGINIA PANHANDLE

CITY           SKY/WX    TMP DP  RH WIND       PRES   REMARKS
MARTINSBURG    PTCLDY    20  10  65 CALM      30.66F
PETERSBURG*    NOT AVBL

$$

VAZ036>039-050-010600-
CENTRAL FOOTHILLS

CITY           SKY/WX    TMP DP  RH WIND       PRES   REMARKS
CHARLOTTESVILL CLOUDY    23  10  57 CALM      30.69F
CULPEPER*      MOCLDY    19  16  86 CALM      30.70F
ORANGE*        CLOUDY    23  16  74 CALM      30.72S
GORDONSVILLE*  CLOUDY    20  13  76 CALM      30.70F
WARRENTON*     MOCLDY    18  17  98 CALM      30.69F

$$

VAZ055>057-010600-
NORTH AND CENTRAL PIEDMONT

CITY           SKY/WX    TMP DP  RH WIND       PRES   REMARKS
FREDERICKSBRG* PTCLDY    24  14  65 SE5       30.73F
STAFFORD*      CLEAR     19  11  70 CALM      30.77F

$$

NCZ024-NYZ072-PAZ021-071-VAZ022-071-010600-
OTHER REGIONAL OBSERVATIONS

CITY           SKY/WX    TMP DP  RH WIND       PRES   REMARKS
NEW YORK CITY  CLEAR     27   0  31 MISG      30.74F
PHILADELPHIA   PTCLDY    24   3  40 W3        30.75F
PITTSBURGH     CLOUDY    23   1  38 NE3       30.50F
ROANOKE        PTCLDY    27  13  55 SE5       30.68S
RICHMOND       PTCLDY    24  13  62 CALM      30.73F
RALEIGH        PTCLDY    29  15  56 E5        30.68F

$$

ANZ530>537-010600-
MARINE OBSERVATIONS

STATION/POSITION TIME  TEMP    WIND        PRES
                       AIR SEA DIR/SP/G
                 (UTC) (F)     (DEG/KT/KT) (MB)
THOMAS PT LIGHT  0500   27 31  160/  7/  8 1041.9F
BALT KEY BRIDGE  0400   25     160/  2/  2 1041.7F
COVE POINT       0400   25     140/  4/  5 1041.8F
LEWISETTA        0400   23 33     CALM     1041.6F
SOLOMONS ISLAND  0406      32                N/A

$$




USA.gov is the U.S. government's official web portal to all federal, state and local government web resources and services.